Regional Weather Roundup
Issued by NWS Wilmington, NC

Current Version | Previous Version | Text Only | Print | Product List | Glossary On
Versions: 1 2 3 4 5 6 7 8 9 10 11 12 13 14 15 16 17 18 19 20 21 22 23 24 25 26 27 28 29 30 31 32 33 34 35 36 37 38 39 40 41 42 43 44 45 46 47 48 49 50
000
ASUS42 KILM 120410
RWRILM
RWRILM
REGIONAL HOURLY WEATHER ROUNDUP
NATIONAL WEATHER SERVICE WILMINGTON NC
1200 AM EDT SAT JUL 12 2014

NOTE: "FAIR" INDICATES FEW OR NO CLOUDS BELOW 12,000 FEET WITH NO
SIGNIFICANT WEATHER AND/OR OBSTRUCTIONS TO VISIBILITY.

...............WFO WILMINGTON COUNTY WARNING AREA...............

......COASTAL NC AND SC COUNTIES......

CITY           SKY/WX    TMP DP  RH WIND       PRES   REMARKS
WILMINGTON     CLEAR     76  73  91 CALM      30.20S
SOUTHPORT      PTCLDY    73  71  95 CALM      30.20S
N MYRTLE BEACH PTCLDY    75  71  87 S3        30.19F
MYRTLE BEACH   PTCLDY    79  72  78 SE5       30.19F

......INLAND NC AND SC COUNTIES.......

CITY           SKY/WX    TMP DP  RH WIND       PRES   REMARKS
LUMBERTON      CLEAR     74  72  93 CALM      30.19S FOG
ELIZABETHTOWN  CLEAR     74  74  99 CALM      30.19F
WHITEVILLE     CLEAR     74  72  92 CALM      30.19S
FLORENCE       PTCLDY    75  72  90 SE3       30.19S
DARLINGTON     PTCLDY    73  70  88 CALM      30.20F

....................REST OF NORTH CAROLINA......................

.........EASTERN NC.........

CITY           SKY/WX    TMP DP  RH WIND       PRES   REMARKS
CAPE HATTERAS  CLOUDY    76  74  93 E3        30.20S
JACKSONVILLE   CLEAR     72  70  94 CALM      30.21R
MOREHEAD CITY  MOCLDY    76  73  91 CALM      30.20S
KENANSVILLE    CLEAR     70  69  95 CALM      30.22R FOG
NEW BERN       PTCLDY    75  71  87 CALM      30.21S
ELIZABETH CITY CLEAR     70  69  97 CALM      30.21S

.........CENTRAL NC.........

CITY           SKY/WX    TMP DP  RH WIND       PRES   REMARKS
RALEIGH DURHAM CLEAR     70  67  90 CALM      30.21S
ROCKY MOUNT    FOG       69  68  96 CALM      30.20S VSB 3/4
ROANOKE RAPIDS NOT AVBL
FAYETTEVILLE   CLEAR     74  70  87 CALM      30.19S
HOFFMAN        CLEAR     72  71  95 VRB1      30.22S

.........WESTERN NC.........

CITY           SKY/WX    TMP DP  RH WIND       PRES   REMARKS
CHARLOTTE      CLEAR     74  68  81 S3        30.23R
GREENSBORO     CLEAR     73  66  78 CALM      30.22R
HICKORY        NOT AVBL
BOONE          NOT AVBL
ASHEVILLE      NOT AVBL

.....................REST OF SOUTH CAROLINA.....................

.........EASTERN SC.........

CITY           SKY/WX    TMP DP  RH WIND       PRES   REMARKS
CHARLESTON     MOCLDY    76  73  91 CALM      30.18S
BEAUFORT MCAS  CLOUDY    81  76  84 S3        30.17S THUNDER
HILTON HEAD    NOT AVBL

.........CENTRAL SC.........

CITY           SKY/WX    TMP DP  RH WIND       PRES   REMARKS
COLUMBIA       PTCLDY    78  72  81 E5        30.18R
ORANGEBURG     CLEAR     75  70  84 CALM      30.19S
SUMTER SHAW    PTCLDY    75  74  95 E1        30.18R

.........WESTERN SC.........

CITY           SKY/WX    TMP DP  RH WIND       PRES   REMARKS
GREENVILLE     NOT AVBL
ROCK HILL      CLEAR     72  69  90 CALM      30.23R
ANDERSON       MOCLDY    77  71  82 SE3       30.21S
CLEMSON        NOT AVBL
GREENWOOD      CLOUDY    76  70  82 CALM      30.22R


...................COASTAL AND OFFSHORE REPORTS..................

................LOCAL PIERS AND NC RESERVE................


STATION/POSITION TIME  SKY/WX   TEMP    WIND        PRES    VSBY
                                AIR SEA DIR/SP/G
                 (UTC)          (F)     (DEG/KT/KT) (MB)    (MI)
JOHNY MRCER PIER 0400            77 83  250/  5/  5 1021.9F
NC RESRV MASNBRO 0300            75     210/  2     1022.0S
OCEAN CREST PIER 0400            79 84  190/  5/  6 1021.5F
SPRINGMAID  PIER 0400            79 83  150/  6/  7 1022.2F


................COASTAL AND OFFSHORE BUOYS................


STATION/POSITION TIME  SKY/WX   TEMP    WIND        PRES    VSBY
                                AIR SEA DIR/SP/G
                 (UTC)          (F)     (DEG/KT/KT) (MB)    (MI)
DIMNDSHOAL 41025 0400                   VRB  2/  2  1022.4F
WVE H/P(F/S)=  2/ 5 SWL H/P/D(F/S/D)=  2/150/ 5

CAPE LOOKOUT     0300            79     270/  5/  5 1022.4R
ONSLOW BAY 41036 0400            79 81  260/  4/  6 1022.9F
WVE H/P(F/S)=  2/ 5 WND WVE H/P(F/S)=  2/ 4 SWL H/P/D(F/S/D)=  2/170/ 5

5 WRITEBCH 41038 0300            76 81  190/  6/  6 1023.2R
MASONBORO  41110 0400               81                N/A
WVE H/P(F/S)=  2/ 5 WND WVE H/P(F/S)=  2/ 5

WILM HARBR 41108 NOT AVBL
27WRITEBCH 41037 0300            76 81  190/  4/  4 1022.5R
FRYING PAN 41013 NOT AVBL
SUNST NRSH 41024 0300            79     180/  6/  6 1022.3S
CAPRS NRSH 41029 0300            80     150/  8/ 10   N/A
EDISTO     41004 0400            80 82  140/ 12/ 12 1021.6F
WVE H/P(F/S)=  2/ 9 WND WVE H/P(F/S)=  2/ 4 SWL H/P/D(F/S/D)=  2/ 9



..........OFFSHORE BUOYS BEYOND 100 NM OFFSHORE...........
.....IN A TRIANGLE---HAT TO BERMUDA TO BAHAMAS TO HAT.....


STATION/POSITION TIME  SKY/WX   TEMP    WIND        PRES    VSBY
                                AIR SEA DIR/SP/G
                 (UTC)          (F)     (DEG/KT/KT) (MB)    (MI)
150E HAT   41001 NOT AVBL
W BERMUDA  41048 0348            82 83  170/ 10/ 12 1023.7F
WVE H/P(F/S)=  3/ 7 WND WVE H/P(F/S)=  2/ 4 SWL H/P/D(F/S/D)=  2/150/ 7

ATLANTIC S 41049 0302            81 84  100/ 12/ 14 1023.5
WVE H/P(F/S)=  4/ 8 WND WVE H/P(F/S)=  2/ 5 SWL H/P/D(F/S/D)=  3/130/ 8

E BAHAMAS  41046 0332            82 84   90/ 12/ 14 1021.1F
WVE H/P(F/S)=  5/ 7 WND WVE H/P(F/S)=  2/ 5 SWL H/P/D(F/S/D)=  3/100/ 7

NE BAHAMAS 41047 0332            83 85  120/ 10/ 12 1022.4F
WVE H/P(F/S)=  4/ 7 WND WVE H/P(F/S)=  2/ 5 SWL H/P/D(F/S/D)=  3/140/ 7

120E CANVRL41010 0400            83 84  110/ 10/ 12 1021.7F
WVE H/P(F/S)=  2/ 9 WND WVE H/P(F/S)=  2/ 4 SWL H/P/D(F/S/D)=  2/100/ 9


END



USA.gov is the U.S. government's official web portal to all federal, state and local government web resources and services.